Nocturne des Fenils (Grand-Rechain) 01/07/2016 - 5 km
Mise à jour le : 01/07/2016 à 21:23
Place Nom Prénom Dossard Temps Vitesse Allure Place. Cat. Catégorie
1 REIP MARTIN 1025 27:35 10,87 5:31 1 Espoirs Garçons
2 PIRENNE ANTOINE 1027 28:13 10,63 5:38 2 Espoirs Garçons
3 JONAS QUENTIN 1004 29:19 10,23 5:51 3 Espoirs Garçons
4 BAAR GERMAIN 1010 30:55 9,70 6:11 4 Espoirs Garçons
5 BREVER EVE 1003 32:05 9,35 6:25 1 Espoirs Filles
6 COLSON MATHEO 1005 33:28 8,96 6:41 5 Espoirs Garçons
7 CONSTANT MAXYM 1015 35:52 8,36 7:10 6 Espoirs Garçons
8 KEVELAER LAURENCE 1021 37:52 7,92 7:34 1 Ainées 1
9 TORUN CELIA 1022 38:15 7,84 7:39 2 Espoirs Filles
10 LANNEAU NICOLE 824 38:46 7,74 7:45 1 Ainées 2
11 JEROME CLEMENCE 1008 38:46 7,74 7:45 3 Espoirs Filles
12 HALLEUX FABRICE 1011 38:48 7,73 7:45 1 Vétérans 1
13 HALLEUX CASSIDY 1012 38:50 7,72 7:46 4 Espoirs Filles
14 BOOLS MONIQUE 885 40:31 7,40 8:06 2 Ainées 1
15 LAOUREUX ANTOINE 1023 40:31 7,40 8:06 7 Espoirs Garçons
16 LAOUREUX SELENA 1024 40:33 7,40 8:06 5 Espoirs Filles
17 GRIFNEE SOPHIE 1016 40:43 7,37 8:08 3 Ainées 1
18 LOUCKX JUSTINE 1026 41:45 7,18 8:21 1 Dames
19 HOCHTENBACH BEATRICE 1029 42:40 7,03 8:32 2 Dames
20 MOSSAY CATHERINE 1030 42:42 7,02 8:32 4 Ainées 1
21 FETWEIS YSALINE 1028 42:44 7,02 8:32 3 Dames
22 PATRIARCA CATIA 1017 42:57 6,98 8:35 5 Ainées 1
23 PATRIARCA TIZIANA 1019 42:59 6,98 8:35 2 Ainées 2
24 CONSTANT CHARLYN 1013 43:01 6,97 8:36 6 Espoirs Filles
25 CONSTANT SYLVAIN 1014 43:03 6,97 8:36 2 Vétérans 1
26 SERROYEN FABIAN 1007 43:46 6,85 8:45 1 Séniors
27 SERROYEN VINCENT 1006 47:33 6,31 9:30 2 Séniors
28 MAGERMANS EMILIE 1020 51:06 5,87 10:13 4 Dames